Skip Page Navigation
NASA JPL Caltech
NASA Logo - Jet Propulsion Laboratory + View the NASA Portal
+ Center for Near-Earth Object Studies
JPL Home Earth Solar System Stars & Galaxies Technology
JPL Solar System Dynamics
BODIES ORBITS EPHEMERIDES TOOLS PHYSICAL DATA DISCOVERY FAQ SITE MAP
JPL Small-Body Database Browser
Search: [ help ]  
(2015 RF36)
Classification: Aten [NEO]          SPK-ID: 3727176
Ephemeris | Orbit Diagram | Orbital Elements | Mission Design | Physical Parameters | Close-Approach Data ]

[ hide orbit diagram ]

For accurate long-term ephemerides, please instead use our Horizons system.This orbit viewer was implemented using two-body methods, and hence should not be used for determining accurate long-term trajectories (over several years or decades) or planetary encounter circumstances.


Orbital Elements at Epoch 2459200.5 (2020-Dec-17.0) TDB
Reference: JPL 38 (heliocentric ecliptic J2000)
 Element Value Uncertainty (1-sigma)   Units 
e .1187779409417903 2.2273e-05  
a .9492591313917118 7.6024e-06 au
q .8365080863448119 2.7841e-05 au
i 7.249547998745692 0.0018388 deg
node 182.4721563843366 8.0229e-05 deg
peri 328.7790229825178 0.00083982 deg
M 93.15711146757693 0.024974 deg
tp 2459113.084365291754
(2020-Sep-20.58436529)
0.022384 TDB
period 337.8124117332833
0.92
0.0040582
1.111e-05
d
yr
n 1.065680204445048 1.2802e-05 deg/d
Q 1.062010176438612 8.5054e-06 au
  Orbit Determination Parameters
   # obs. used (total)      346  
   # delay obs. used      0  
   # Doppler obs. used      2  
   data-arc span      61 days  
   first obs. used      2015-09-06  
   last obs. used      2015-11-06  
   planetary ephem.      DE441  
   SB-pert. ephem.      SB441-N16  
   condition code      5  
   norm. resid. RMS      .25079  
   source      ORB  
   producer      Otto Matic  
   solution date      2021-Apr-15 14:26:52  

Additional Information
 Earth MOID = .0343575 au 
 Jupiter MOID = 3.91393 au 
 T_jup = 6.323 
[ show covariance matrix ]

Ephemeris | Orbit Diagram | Orbital Elements | Mission Design | Physical Parameters | Close-Approach Data ]

Physical Parameter Table
Parameter Symbol Value Units Sigma Reference Notes
absolute magnitude H 23.4   n/a E2015T96  
rotation period rot_per 0.025 h n/a LCDB (Rev. 2020-October); Warner et al., 2009 Result based on less than full coverage, so that the period may be wrong by 30 percent or so.
Published Reference List:
[UNPUBLISHED. http://www.naic.edu/~pradar/asteroids/2015RF36/2015RF36.2015Sep24.s 25p0Hz.cw.gif]

[ show close-approach data ]
Ephemeris | Orbit Diagram | Orbital Elements | Mission Design | Physical Parameters | Close-Approach Data ]
ABOUT SSD CREDITS/AWARDS PRIVACY/COPYRIGHT GLOSSARY LINKS
FirstGov 2021-Jun-17 00:41 UT
(server date/time)  
NASA Home Page
Site Manager:   Ryan S. Park
Webmaster  Alan B. Chamberlin